#timestamp,LO_Frequency,Hit,StdDev 
1649491215.4,286046999.0,N
1649491235.3,286046998.4,N
1649491255.1,286047000.8,N
1649491275.9,286046998.2,N
1649491295.7,286047001.2,N
1649491315.5,286046999.3,N
1649491335.4,286046999.0,N
1649491355.2,286046998.7,N
1649491375.0,286046998.5,N
1649491375.9,286046998.5,N
1649491395.8,286046998.1,N
1649491415.6,286046997.0,N
1649491435.5,286046997.2,N
1649491455.3,286046996.7,N
1649491475.1,286046996.8,N
1649491495.9,286046996.5,N
1649491515.7,286046998.8,N
1649491535.6,286046999.2,N
1649491555.4,286046996.5,N
1649491575.2,286046998.9,N
1649491595.1,286046998.7,N
1649491596.0,286046998.7,N
1649491615.8,286046996.6,N
1649491635.6,286046997.0,N
1649491655.5,286046997.7,N
1649491675.3,286046997.6,N
1649491695.2,286046995.3,Y
1649491715.9,286046998.4,P
1649491735.7,286046998.3,P
1649491755.6,286046998.4,P
1649491775.4,286046998.7,Y
1649491795.3,286047001.1,P
1649491815.1,286047001.1,N
1649491816.0,286047001.1,N
1649491835.8,286047000.9,N
1649491855.7,286047000.8,N
1649491875.5,286047000.6,N
1649491895.3,286046998.2,N
1649491915.2,286046998.1,N
1649491935.0,286046999.3,N
1649491935.9,286046999.3,N
1649491955.8,286046999.1,N
1649491975.6,286046999.1,N
1649491995.4,286046999.0,N
1649492015.3,286046998.9,N
1649492035.1,286046997.0,N
1649492055.8,286046999.2,N
1649492075.7,286046996.9,N
1649492095.5,286046999.5,N
1649492115.4,286046997.6,N
1649492135.2,286046997.5,N
1649492155.0,286046996.7,N
1649492155.9,286046996.7,N
1649492175.8,286046996.5,N
1649492195.6,286046999.6,N
1649492215.5,286046997.0,N
1649492235.3,286046996.6,N
1649492255.1,286046997.7,N
1649492275.9,286046999.2,N
1649492295.7,286046999.6,N
1649492315.5,286046999.2,N
1649492335.4,286046999.2,N
1649492355.2,286046999.3,N
1649492375.1,286047001.0,N
1649492376.0,286047001.0,N
1649492395.8,286047000.2,N
1649492415.6,286046998.5,N
1649492435.5,286047000.0,N
1649492455.3,286047000.9,N
1649492475.1,286046998.6,N
1649492495.9,286046998.5,N
1649492515.7,286046998.6,N
1649492535.6,286046999.1,N
1649492555.4,286047000.9,N
1649492575.2,286047000.5,N
1649492595.1,286047001.2,N
1649492596.0,286047001.2,N
1649492615.8,286047000.9,N
1649492635.7,286047002.4,N
1649492655.5,286047000.1,N
1649492675.3,286047000.8,N
1649492695.2,286046999.7,N
1649492715.9,286046999.9,N
1649492735.7,286047001.7,N
1649492755.6,286047001.9,N
1649492775.4,286047002.4,N
1649492795.3,286047001.4,N
1649492815.1,286047003.6,N
1649492816.0,286047003.6,N
1649492835.8,286047003.9,N
1649492855.7,286047001.3,N
1649492875.5,286047002.7,N
1649492895.4,286047001.9,N
1649492915.2,286047004.4,N
1649492935.0,286047004.0,N
1649492935.9,286047004.0,N
1649492955.8,286047003.3,N
1649492975.6,286047003.8,N
1649492995.4,286047003.7,N
1649493015.3,286047005.9,Y
1649493035.1,286047002.0,P
1649493055.9,286047000.2,N
1649493075.7,286047002.8,P
1649493095.5,286047001.8,N
1649493115.4,286047001.7,N
1649493135.2,286047001.9,N
1649493155.1,286046999.7,N
1649493156.0,286046999.7,N
1649493175.8,286047000.3,N
1649493195.6,286047002.3,N
1649493245.5,286047001.5,E
1649493255.4,286047002.3,N
1649493275.3,286047000.0,P
1649493295.1,286047000.9,N
1649493296.0,286047000.9,N
1649493315.8,286047001.0,N
1649493335.7,286047002.3,Y
1649493355.5,286047000.8,P
1649493375.4,286047000.9,P
1649493395.2,286047000.4,P
1649493415.0,286046998.9,Y
1649493415.9,286046998.9,P
1649493435.8,286046998.1,N
1649493455.6,286047000.7,N
1649493475.5,286046998.3,N
1649493495.3,286046999.5,N
1649493515.1,286046997.0,N
1649493535.9,286046996.5,N
1649493555.7,286046998.7,N
1649493575.5,286047000.6,N
1649493595.4,286047004.3,N
1649493615.2,286047002.4,N
1649493635.1,286047000.8,N
1649493636.0,286047000.8,N
1649493655.8,286047002.4,N
1649493675.6,286047001.0,N
1649493695.5,286046998.3,N
1649493715.3,286046998.2,N
1649493735.1,286047001.0,N
1649493755.9,286047000.5,N
1649493775.7,286047000.6,N
1649493795.6,286046999.5,N
1649493815.4,286046998.5,N
1649493835.2,286047000.3,N
1649493855.1,286047000.6,N
1649493856.0,286047000.6,N
1649493875.8,286047002.4,N
1649493895.6,286047002.3,N
1649493915.5,286047001.6,N
1649493935.3,286047002.6,N
1649493955.2,286047002.6,N
1649493975.9,286047002.0,N
1649493995.7,286047002.2,N
1649494015.6,286046998.7,N
1649494035.4,286046997.7,N
1649494055.3,286046996.6,N
1649494075.1,286046998.4,N
1649494076.0,286046998.4,N
1649494095.8,286047000.8,N
1649494115.7,286047000.2,N
1649494135.5,286047002.1,N
1649494155.4,286047000.1,N
1649494175.2,286047002.3,N
1649494195.0,286047002.2,N
1649494195.9,286047002.2,N
1649494215.8,286047002.6,N
1649494235.6,286047000.5,N
1649494255.4,286046998.6,N
1649494275.3,286047001.1,N
1649494295.1,286047000.6,N
1649494315.9,286047000.4,N
1649494335.7,286047000.6,N
1649494355.5,286046999.9,N
1649494375.4,286047004.1,N
1649494395.2,286047002.0,N
1649494415.1,286047000.8,N
1649494416.0,286047000.8,N
1649494435.8,286047001.2,N
1649494455.7,286047002.6,N
1649494475.5,286047002.7,N
1649494495.3,286047002.0,N
1649494515.2,286047001.4,N
1649494535.9,286047003.5,N
1649494555.7,286047006.0,Y
1649494575.6,286047002.5,P
1649494595.4,286047002.5,N
1649494615.3,286046997.2,P
1649494635.1,286046995.3,N
1649494636.0,286046995.3,N
1649494655.8,286046996.6,N
1649494675.7,286046999.5,N
1649494695.5,286046998.8,N
1649494715.3,286047000.3,N
1649494735.2,286047002.1,N
1649494755.0,286047001.9,N
1649494755.9,286047001.9,N
1649494775.8,286047000.4,N
1649494795.6,286047002.8,N
